• In India
  • List of Countries
  • For 7 days
  • Water Temperature
  • Satellite Maps
  • Weather Map
  • Weather Widgets
  • user-avatar
    Login

    Hourly Weather Florianópolis

    Today, 23 June, Saturday

    Time Temperature Precipitation Wind Pressure Humidity
    00:00 +16°C° 0 mm 3 mps 764 mmHg 95%
    01:00 +16°C° 0 mm 3 mps 763 mmHg 95%
    02:00 +17°C° 0 mm 3 mps 763 mmHg 94%
    03:00 +17°C° 0 mm 4 mps 763 mmHg 94%
    04:00 +17°C° 0 mm 4 mps 763 mmHg 94%
    05:00 +17°C° 0 mm 4 mps 763 mmHg 95%
    06:00 +17°C° 0 mm 4 mps 762 mmHg 95%
    07:00 +18°C° 0 mm 4 mps 762 mmHg 91%
    08:00 +19°C° 0 mm 4 mps 762 mmHg 87%
    09:00 +20°C° 0 mm 4 mps 762 mmHg 79%
    10:00 +23°C° 0 mm 4 mps 762 mmHg 69%
    11:00 +26°C° 0 mm 4 mps 762 mmHg 58%
    12:00 +29°C° 0 mm 4 mps 761 mmHg 48%
    13:00 +29°C° 0 mm 4 mps 761 mmHg 47%
    14:00 +30°C° 0 mm 5 mps 761 mmHg 45%
    15:00 +30°C° 0 mm 5 mps 760 mmHg 44%
    16:00 +28°C° 0 mm 5 mps 760 mmHg 57%
    17:00 +25°C° 0 mm 4 mps 760 mmHg 70%
    18:00 +22°C° 0 mm 4 mps 760 mmHg 82%
    19:00 +21°C° 0 mm 4 mps 761 mmHg 85%
    20:00 +21°C° 0 mm 4 mps 761 mmHg 88%
    21:00 +20°C° 0 mm 3 mps 761 mmHg 91%
    22:00 +20°C° 0 mm 4 mps 761 mmHg 89%
    23:00 +21°C° 0 mm 4 mps 761 mmHg 86%

    Tomorrow, 24 June, Sunday

    Time Temperature Precipitation Wind Pressure Humidity
    00:00 +21°C° 0 mm 4 mps 762 mmHg 84%
    01:00 +21°C° 0 mm 4 mps 762 mmHg 82%
    02:00 +21°C° 0 mm 3 mps 762 mmHg 81%
    03:00 +21°C° 0 mm 3 mps 762 mmHg 80%
    04:00 +20°C° 0 mm 4 mps 762 mmHg 84%
    05:00 +19°C° 0 mm 5 mps 762 mmHg 89%
    06:00 +17°C° 0 mm 6 mps 762 mmHg 94%
    07:00 +19°C° 0 mm 6 mps 763 mmHg 91%
    08:00 +20°C° 0 mm 6 mps 764 mmHg 88%
    09:00 +20°C° 0 mm 6 mps 764 mmHg 85%
    10:00 +20°C° 0 mm 6 mps 764 mmHg 84%
    11:00 +21°C° 0 mm 6 mps 764 mmHg 82%
    12:00 +21°C° 0 mm 5 mps 765 mmHg 81%
    13:00 +20°C° 0.1 mm 5 mps 764 mmHg 83%
    14:00 +19°C° 0.1 mm 5 mps 764 mmHg 86%
    15:00 +19°C° 0.1 mm 5 mps 764 mmHg 89%
    16:00 +17°C° 0.2 mm 5 mps 764 mmHg 92%
    17:00 +17°C° 0.2 mm 4 mps 764 mmHg 94%
    18:00 +17°C° 0.2 mm 4 mps 765 mmHg 97%
    19:00 +17°C° 0.4 mm 4 mps 765 mmHg 98%
    20:00 +17°C° 0.4 mm 4 mps 765 mmHg 98%
    21:00 +17°C° 0.4 mm 3 mps 765 mmHg 98%
    22:00 +17°C° 0.6 mm 3 mps 765 mmHg 99%
    23:00 +17°C° 0.6 mm 3 mps 765 mmHg 99%

    Day after tomorrow, 25 June, Monday

    Time Temperature Precipitation Wind Pressure Humidity
    00:00 +17°C° 0.6 mm 2 mps 764 mmHg 99%
    01:00 +17°C° 0.6 mm 3 mps 764 mmHg 99%
    02:00 +17°C° 0.6 mm 3 mps 763 mmHg 99%
    03:00 +17°C° 0.6 mm 3 mps 763 mmHg 99%
    04:00 +18°C° 0.1 mm 4 mps 762 mmHg 99%
    05:00 +18°C° 0.1 mm 4 mps 762 mmHg 98%
    06:00 +19°C° 0.1 mm 4 mps 762 mmHg 98%
    07:00 +19°C° 0 mm 5 mps 762 mmHg 97%
    08:00 +20°C° 0 mm 5 mps 762 mmHg 96%
    09:00 +20°C° 0 mm 5 mps 762 mmHg 95%
    10:00 +22°C° 0 mm 5 mps 762 mmHg 89%
    11:00 +23°C° 0 mm 5 mps 761 mmHg 82%
    12:00 +26°C° 0 mm 5 mps 761 mmHg 75%
    13:00 +27°C° 0 mm 5 mps 760 mmHg 69%
    14:00 +28°C° 0 mm 5 mps 759 mmHg 62%
    15:00 +30°C° 0 mm 5 mps 759 mmHg 56%
    16:00 +27°C° 0 mm 4 mps 759 mmHg 68%
    17:00 +25°C° 0 mm 4 mps 759 mmHg 80%
    18:00 +22°C° 0 mm 3 mps 759 mmHg 92%
    19:00 +22°C° 0.2 mm 3 mps 759 mmHg 94%
    20:00 +21°C° 0.2 mm 2 mps 760 mmHg 95%
    21:00 +21°C° 0.2 mm 2 mps 760 mmHg 96%
    22:00 +21°C° 0 mm 2 mps 760 mmHg 97%
    23:00 +20°C° 0 mm 2 mps 761 mmHg 97%

    26 June, Tuesday

    Time Temperature Precipitation Wind Pressure Humidity
    00:00 +20°C° 0 mm 3 mps 761 mmHg 97%
    01:00 +20°C° 0 mm 3 mps 761 mmHg 97%
    02:00 +20°C° 0 mm 3 mps 760 mmHg 97%
    03:00 +20°C° 0 mm 3 mps 760 mmHg 97%
    04:00 +20°C° 0.4 mm 3 mps 760 mmHg 98%
    05:00 +20°C° 0.4 mm 3 mps 760 mmHg 98%
    06:00 +20°C° 0.4 mm 3 mps 761 mmHg 98%
    07:00 +20°C° 0.3 mm 3 mps 761 mmHg 98%
    08:00 +20°C° 0.3 mm 2 mps 762 mmHg 98%
    09:00 +20°C° 0.3 mm 2 mps 762 mmHg 98%
    10:00 +21°C° 0.4 mm 2 mps 762 mmHg 98%
    11:00 +21°C° 0.4 mm 2 mps 762 mmHg 98%
    12:00 +21°C° 0.4 mm 2 mps 762 mmHg 98%
    13:00 +21°C° 0.4 mm 2 mps 762 mmHg 98%
    14:00 +21°C° 0.4 mm 2 mps 761 mmHg 98%
    15:00 +21°C° 0.4 mm 2 mps 761 mmHg 98%
    16:00 +21°C° 0.3 mm 2 mps 761 mmHg 98%
    17:00 +20°C° 0.3 mm 2 mps 761 mmHg 99%
    18:00 +20°C° 0.3 mm 2 mps 761 mmHg 99%
    19:00 +20°C° 2 mm 2 mps 762 mmHg 99%
    20:00 +21°C° 2 mm 1 mps 762 mmHg 99%
    21:00 +21°C° 2 mm 1 mps 763 mmHg 99%
    22:00 +21°C° 4.8 mm 1 mps 763 mmHg 99%
    23:00 +21°C° 4.8 mm 1 mps 763 mmHg 99%

    27 June, Wednesday

    Time Temperature Precipitation Wind Pressure Humidity
    00:00 +21°C° 4.8 mm 1 mps 763 mmHg 99%
    01:00 +21°C° 1.5 mm 1 mps 763 mmHg 99%
    02:00 +21°C° 1.5 mm 1 mps 762 mmHg 99%
    03:00 +21°C° 1.5 mm 1 mps 762 mmHg 99%
    04:00 +21°C° 1.4 mm 1 mps 762 mmHg 99%
    05:00 +21°C° 1.4 mm 1 mps 762 mmHg 99%
    06:00 +21°C° 1.4 mm 1 mps 762 mmHg 99%
    07:00 +21°C° 1.3 mm 1 mps 763 mmHg 99%
    08:00 +21°C° 1.3 mm 1 mps 763 mmHg 99%
    09:00 +22°C° 1.3 mm 1 mps 764 mmHg 99%
    10:00 +23°C° 0.1 mm 1 mps 763 mmHg 95%
    11:00 +24°C° 0.1 mm 1 mps 763 mmHg 91%
    12:00 +25°C° 0.1 mm 1 mps 763 mmHg 87%
    13:00 +25°C° 0.1 mm 2 mps 763 mmHg 88%
    14:00 +25°C° 0.1 mm 2 mps 763 mmHg 89%
    15:00 +24°C° 0.1 mm 2 mps 762 mmHg 90%
    16:00 +23°C° 0.1 mm 2 mps 763 mmHg 93%
    17:00 +23°C° 0.1 mm 2 mps 763 mmHg 96%
    18:00 +21°C° 0.1 mm 2 mps 764 mmHg 99%
    19:00 +21°C° 0 mm 2 mps 764 mmHg 99%
    20:00 +21°C° 0 mm 2 mps 764 mmHg 99%
    21:00 +22°C° 0 mm 1 mps 765 mmHg 99%
    22:00 +21°C° 0 mm 1 mps 765 mmHg 99%
    23:00 +21°C° 0 mm 1 mps 765 mmHg 99%

    28 June, Thursday

    Time Temperature Precipitation Wind Pressure Humidity
    00:00 +21°C° 0 mm 1 mps 765 mmHg 99%
    01:00 +21°C° 0 mm 1 mps 765 mmHg 99%
    02:00 +21°C° 0 mm 1 mps 765 mmHg 99%
    03:00 +21°C° 0 mm 1 mps 765 mmHg 99%
    04:00 +20°C° 0 mm 1 mps 765 mmHg 99%
    05:00 +20°C° 0 mm 1 mps 765 mmHg 99%
    06:00 +20°C° 0 mm 1 mps 765 mmHg 99%
    07:00 +21°C° 0 mm 1 mps 765 mmHg 98%
    08:00 +21°C° 0 mm 1 mps 766 mmHg 98%
    09:00 +21°C° 0 mm 1 mps 766 mmHg 97%
    10:00 +23°C° 0 mm 1 mps 766 mmHg 91%
    11:00 +24°C° 0 mm 2 mps 766 mmHg 84%
    12:00 +26°C° 0 mm 2 mps 766 mmHg 78%
    13:00 +26°C° 0 mm 3 mps 765 mmHg 78%
    14:00 +26°C° 0 mm 3 mps 765 mmHg 78%
    15:00 +26°C° 0 mm 3 mps 764 mmHg 77%
    16:00 +25°C° 0 mm 3 mps 765 mmHg 83%
    17:00 +24°C° 0 mm 3 mps 765 mmHg 89%
    18:00 +22°C° 0 mm 3 mps 765 mmHg 95%
    19:00 +22°C° 0.1 mm 3 mps 765 mmHg 96%
    20:00 +21°C° 0.1 mm 3 mps 766 mmHg 96%
    21:00 +21°C° 0.1 mm 3 mps 766 mmHg 96%
    22:00 +21°C° 0 mm 3 mps 766 mmHg 96%
    23:00 +21°C° 0 mm 3 mps 766 mmHg 96%
    Show more